Accueil
METAR-TAF:

METAR-TAF

Aéroports :

Uíge, Angola

latitude: 7-36-10S, longitude: 15-1-40E, altitude: 829 m

Observation

Le bulletin a été fait il y a 9 heures et 26 minutes, à 14:00 UTC
Vent 6 kt de ouest
Température 28°C
Humidité 66%
Pression 1010 hPa
Visibilité 10 km ou plus
Nuages épars à une hauteur de 2300 ft
Nuages fragmentés à une hauteur de 9000 ft

METAR: FNUG 261400Z 27006KT 9999 SCT023 BKN090 28/21 Q1010

Heure: 00:26 (23:26 UTC)


TAF: absent

Observations et prévisions météorologiques de plus de 4000 aéroports (messages METAR et TAF).

Les stations disponibles sont représentées par des disques jaunes et rouges sur la carte.

Passer la souris dessus pour voir le nom de la station.

Cliquer dessus pour voir les observations et prévisions météorologiques.

Pour changer de carte: cliquez sur les boutons verts avec une croix noire pour zoomer, sur le bouton vert avec un tiret pour effectuer un zoom arrière, ou sur les flèches vertes pour les cartes adjacentes.


METAR-TAF: